TimeCST,TemperatureF,Dew PointF,Humidity,Sea Level PressureIn,VisibilityMPH,Wind Direction,Wind SpeedMPH,Gust SpeedMPH,PrecipitationIn,Events,Conditions,WindDirDegrees,DateUTC
12:12 AM,46.4,33.8,62,30.10,10.0,SSE,16.1,23.0,N/A,,Clear,160,2012-11-18 06:12:00
12:32 AM,46.4,33.8,62,30.10,10.0,SSE,18.4,24.2,N/A,,Clear,160,2012-11-18 06:32:00
12:53 AM,46.4,33.8,62,30.10,10.0,SSE,16.1,27.6,N/A,,Clear,160,2012-11-18 06:53:00
1:12 AM,46.4,33.8,62,30.10,10.0,SSE,16.1,25.3,N/A,,Clear,160,2012-11-18 07:12:00
1:32 AM,46.4,32.0,57,30.09,10.0,SSE,17.3,25.3,N/A,,Clear,160,2012-11-18 07:32:00
1:52 AM,46.4,32.0,57,30.09,10.0,SSE,15.0,20.7,N/A,,Clear,160,2012-11-18 07:52:00
2:12 AM,46.4,32.0,57,30.09,10.0,South,12.7,24.2,N/A,,Clear,170,2012-11-18 08:12:00
2:33 AM,44.6,30.2,57,30.09,10.0,South,13.8,20.7,N/A,,Clear,170,2012-11-18 08:33:00
2:52 AM,44.6,30.2,57,30.09,10.0,South,15.0,23.0,N/A,,Clear,170,2012-11-18 08:52:00
3:12 AM,44.6,30.2,57,30.08,10.0,South,15.0,20.7,N/A,,Clear,170,2012-11-18 09:12:00
3:33 AM,44.6,30.2,57,30.08,10.0,South,13.8,19.6,N/A,,Clear,170,2012-11-18 09:33:00
3:52 AM,44.6,30.2,57,30.07,10.0,South,15.0,20.7,N/A,,Clear,170,2012-11-18 09:52:00
4:12 AM,44.6,30.2,57,30.07,10.0,South,13.8,19.6,N/A,,Clear,170,2012-11-18 10:12:00
4:33 AM,44.6,30.2,57,30.06,10.0,South,15.0,20.7,N/A,,Clear,170,2012-11-18 10:33:00
4:52 AM,44.6,30.2,57,30.07,10.0,South,11.5,18.4,N/A,,Clear,180,2012-11-18 10:52:00
5:12 AM,44.6,30.2,57,30.07,10.0,South,13.8,18.4,N/A,,Clear,170,2012-11-18 11:12:00
5:33 AM,42.8,30.2,61,30.07,10.0,South,12.7,-,N/A,,Clear,180,2012-11-18 11:33:00
5:52 AM,42.8,30.2,61,30.07,10.0,South,15.0,20.7,N/A,,Clear,180,2012-11-18 11:52:00
6:12 AM,42.8,30.2,61,30.06,10.0,South,15.0,-,N/A,,Clear,180,2012-11-18 12:12:00
6:33 AM,42.8,30.2,61,30.06,10.0,South,11.5,-,N/A,,Clear,180,2012-11-18 12:33:00
6:52 AM,42.8,30.2,61,30.06,10.0,South,12.7,-,N/A,,Clear,180,2012-11-18 12:52:00
7:12 AM,42.8,30.2,61,30.06,10.0,South,12.7,17.3,N/A,,Clear,180,2012-11-18 13:12:00
7:33 AM,42.8,30.2,61,30.06,10.0,South,15.0,-,N/A,,Clear,180,2012-11-18 13:33:00
7:52 AM,42.8,28.4,57,30.06,10.0,South,15.0,-,N/A,,Clear,180,2012-11-18 13:52:00
8:12 AM,42.8,30.2,61,30.06,10.0,South,13.8,-,N/A,,Clear,180,2012-11-18 14:12:00
8:32 AM,44.6,30.2,57,30.06,10.0,South,15.0,19.6,N/A,,Clear,180,2012-11-18 14:32:00
8:52 AM,46.4,30.2,53,30.06,10.0,South,13.8,19.6,N/A,,Clear,180,2012-11-18 14:52:00
9:13 AM,46.4,30.2,53,30.06,10.0,South,16.1,21.9,N/A,,Clear,180,2012-11-18 15:13:00
9:32 AM,48.2,30.2,50,30.05,10.0,South,18.4,24.2,N/A,,Clear,190,2012-11-18 15:32:00
9:52 AM,48.2,30.2,50,30.05,10.0,South,16.1,27.6,N/A,,Clear,190,2012-11-18 15:52:00
10:13 AM,50.0,30.2,47,30.05,10.0,SSW,20.7,25.3,N/A,,Clear,200,2012-11-18 16:13:00
10:32 AM,50.0,30.2,47,30.05,10.0,South,23.0,-,N/A,,Clear,190,2012-11-18 16:32:00
10:52 AM,51.8,30.2,44,30.05,10.0,South,21.9,26.5,N/A,,Clear,190,2012-11-18 16:52:00
11:13 AM,51.8,30.2,44,30.05,10.0,South,19.6,25.3,N/A,,Clear,190,2012-11-18 17:13:00
11:32 AM,53.6,30.2,41,30.04,10.0,South,16.1,25.3,N/A,,Clear,190,2012-11-18 17:32:00
11:53 AM,53.6,32.0,44,30.04,10.0,South,16.1,23.0,N/A,,Clear,180,2012-11-18 17:53:00
12:12 PM,55.4,32.0,41,30.03,10.0,South,17.3,-,N/A,,Clear,180,2012-11-18 18:12:00
12:32 PM,55.4,32.0,41,30.03,10.0,South,16.1,23.0,N/A,,Clear,180,2012-11-18 18:32:00
12:53 PM,57.2,33.8,41,30.02,10.0,South,15.0,24.2,N/A,,Clear,180,2012-11-18 18:53:00
1:13 PM,57.2,33.8,41,30.02,10.0,South,17.3,20.7,N/A,,Clear,180,2012-11-18 19:13:00
1:32 PM,55.4,33.8,44,30.02,10.0,South,12.7,20.7,N/A,,Clear,170,2012-11-18 19:32:00
1:53 PM,55.4,33.8,44,30.02,10.0,South,9.2,-,N/A,,Clear,170,2012-11-18 19:53:00
2:12 PM,55.4,33.8,44,30.01,10.0,South,13.8,-,N/A,,Clear,170,2012-11-18 20:12:00
2:32 PM,55.4,33.8,44,30.01,10.0,South,12.7,18.4,N/A,,Clear,170,2012-11-18 20:32:00
2:53 PM,57.2,33.8,41,30.01,10.0,South,8.1,19.6,N/A,,Clear,170,2012-11-18 20:53:00
3:12 PM,57.2,33.8,41,30.01,10.0,SSE,11.5,17.3,N/A,,Clear,160,2012-11-18 21:12:00
3:32 PM,57.2,33.8,41,30.00,10.0,South,15.0,20.7,N/A,,Clear,170,2012-11-18 21:32:00
3:53 PM,57.2,33.8,41,30.01,10.0,South,11.5,19.6,N/A,,Clear,170,2012-11-18 21:53:00
4:13 PM,57.2,33.8,41,30.01,10.0,South,15.0,19.6,N/A,,Clear,170,2012-11-18 22:13:00
4:53 PM,55.4,33.8,44,30.01,10.0,SSE,13.8,-,N/A,,Clear,160,2012-11-18 22:53:00
5:12 PM,55.4,33.8,44,30.02,10.0,SSE,15.0,-,N/A,,Clear,160,2012-11-18 23:12:00
5:32 PM,55.4,33.8,44,30.02,10.0,SSE,13.8,-,N/A,,Clear,160,2012-11-18 23:32:00
5:53 PM,55.4,33.8,44,30.02,10.0,SSE,12.7,-,N/A,,Clear,160,2012-11-18 23:53:00
6:12 PM,53.6,33.8,47,30.03,10.0,SSE,10.4,-,N/A,,Clear,160,2012-11-19 00:12:00
6:33 PM,53.6,33.8,47,30.02,10.0,SSE,15.0,23.0,N/A,,Clear,160,2012-11-19 00:33:00
6:52 PM,53.6,33.8,47,30.02,10.0,SSE,17.3,25.3,N/A,,Clear,160,2012-11-19 00:52:00
7:12 PM,53.6,33.8,47,30.02,10.0,South,20.7,24.2,N/A,,Clear,170,2012-11-19 01:12:00
7:33 PM,51.8,33.8,50,30.03,10.0,South,17.3,24.2,N/A,,Clear,170,2012-11-19 01:33:00
7:52 PM,51.8,33.8,50,30.03,10.0,South,18.4,25.3,N/A,,Clear,170,2012-11-19 01:52:00
8:12 PM,51.8,33.8,50,30.03,10.0,SSE,13.8,23.0,N/A,,Clear,160,2012-11-19 02:12:00
8:33 PM,50.0,33.8,54,30.03,10.0,South,17.3,24.2,N/A,,Clear,170,2012-11-19 02:33:00
8:52 PM,50.0,33.8,54,30.03,10.0,South,15.0,23.0,N/A,,Clear,170,2012-11-19 02:52:00
9:12 PM,48.2,33.8,58,30.03,10.0,South,11.5,19.6,N/A,,Clear,170,2012-11-19 03:12:00
9:32 PM,48.2,33.8,58,30.03,10.0,South,11.5,20.7,N/A,,Clear,170,2012-11-19 03:32:00
9:52 PM,48.2,33.8,58,30.03,10.0,South,12.7,19.6,N/A,,Clear,170,2012-11-19 03:52:00
10:13 PM,48.2,35.6,62,30.03,10.0,South,11.5,17.3,N/A,,Clear,170,2012-11-19 04:13:00
10:32 PM,48.2,35.6,62,30.03,10.0,South,10.4,18.4,N/A,,Clear,170,2012-11-19 04:32:00
10:52 PM,48.2,35.6,62,30.02,10.0,South,12.7,18.4,N/A,,Clear,170,2012-11-19 04:52:00
11:13 PM,48.2,35.6,62,30.02,10.0,South,15.0,19.6,N/A,,Clear,170,2012-11-19 05:13:00
11:32 PM,48.2,35.6,62,30.02,10.0,South,13.8,18.4,N/A,,Clear,170,2012-11-19 05:32:00
11:52 PM,48.2,35.6,62,30.02,10.0,South,13.8,19.6,N/A,,Scattered Clouds,170,2012-11-19 05:52:00